www.pogodaiklimat.ru

Погода и климат >> Архив погоды >> Россия >> Краснодарский край >> Горячий Ключ


ПОГОДА в Горячем Ключе

  • Прогноз погоды в Горячем Ключе
  • Монитор погоды в Горячем Ключе
  • Климат города

АРХИВ ПОГОДЫ в Горячем Ключе

Время (UTC), дата Ветер
(напр.,м/с)
 
Видим.   Явления Облачность Т
(С)
Тd
(С)
f
(%)
Тe
(С)
Тes
(С)
Комфортность P
(гПа)
Po
(гПа)
Тmin
(С)
Tmax
(С)
R
(мм)
R24
(мм)
S
(см)
18 12.11 С 1 10 км слабый снег {дождь} [диам. отлож. мокр. снега 1 мм] 10/10 600 м
[Frnb Ns]
+0.1 -1.3 90 -2 -2 1029.8 1021.8
21 12.11 С 2 20 км {снег} 10/10 600 м
[Sc]
-0.1 -1.2 92 -4 -4 1029.5 1021.5
00 13.11 СЗ 2 20 км {снег} 10/10 600 м
[Sc]
-1.2 -2.3 92 -5 -5 1029.4 1021.4
03 13.11 СЗ 2 10 км слабая переохл. морось (гололёд) [диам. гололёда 2 мм] 10/10 300 м
[St]
-1.6 -3.0 90 -6 -6 1029.9 1021.9 -1.7 0.9
06 13.11 СЗ 2 10 км снежные зёрна {морось} [диам. гололёда 2 мм] 10/10 300 м
[St]
-2.3 -3.9 89 -6 -6 1030.4 1022.4 -2.3
09 13.11 С 1 20 км {снег} 10/10 600 м
[Sc]
-1.9 -3.7 87 -4 -4 1030.2 1022.2
12 13.11 С 1 10 км слабая переохл. морось (гололёд) {снег} [диам. гололёда 1 мм] 10/10 300 м
[St]
-1.6 -3.1 89 -4 -4 1029.4 1021.4
15 13.11 штиль 0 4000 м слабый снег {морось} 10/10 600 м
[Frnb Ns]
-1.5 -2.6 92 -3 -3 1029.2 1021.3 -1.5 0.7
18 13.11 штиль 0 20 км {снег, морось} 10/10 600 м
[Sc]
-1.0 -2.3 91 -2 -2 1028.7 1020.7
21 13.11 Ю 1 20 км 10/10 600 м
[Sc]
-0.7 -1.6 94 -3 -3 1027.9 1020.0
00 14.11 штиль 0 20 км 10/10 600 м
[Sc]
-0.5 -1.4 94 -2 -2 1027.0 1019.1
03 14.11 штиль 0 4000 м дымка {снег} 10/10 600 м
[Sc]
-0.1 -0.6 96 -1 -1 1026.4 1018.5 -1.5 0.3 1
06 14.11 штиль 0 2000 м дымка {снег} 10/10 600 м
[Sc]
+0.5 -0.0 96 -1 -1 1026.2 1018.3
09 14.11 С 1 4000 м дымка 10/10 600 м
[Sc]
+2.1 +1.0 92 0 0 1024.9 1017.1
12 14.11 штиль 0 20 км 10/10 600 м
[Sc]
+3.4 +2.1 91 +2 +2 1023.7 1015.9
15 14.11 С 1 20 км 10/10 600 м
[Sc]
+4.1 +2.6 90 +3 +3 1022.6 1014.9 +4.2
18 14.11 штиль 0 20 км 10/10 600 м
[Sc]
+3.3 +1.8 90 +2 +2 1021.9 1014.1
21 14.11 штиль 0 20 км 10/10 600 м
[Sc]
+3.4 +2.0 91 +2 +2 1020.2 1012.5
00 15.11 штиль 0 4000 м дымка 10/10 600 м
[Sc]
+3.2 +2.2 93 +2 +2 1018.7 1011.0
03 15.11 С 1 4000 м дымка 10/10 600 м
[Sc]
+3.2 +1.8 91 +2 +2 1018.1 1010.4 +3.1
06 15.11 штиль 0 20 км 10/10 600 м
[Sc]
+3.3 +1.5 88 +2 +2 1018.5 1010.7
09 15.11 С 1 10 км слабый ливневой дождь 10/10 600 м
[Cb cap]
+3.5 +2.1 91 +2 +2 1018.5 1010.8
12 15.11 С 1 10 км слабый ливневой дождь 10/10 600 м
[Cb cap]
+4.9 +2.9 87 +4 +4 1018.9 1011.2
15 15.11 С 1 20 км {ливн. осадки} 10/10 600 м
[Cb calv]
+3.9 +2.1 88 +2 +2 1019.6 1011.9 +5.2 1
18 15.11 С 1 10 км слабый ливневой дождь 10/10 600 м
[Cb cap]
+2.7 +1.3 90 +1 +1 1020.2 1012.4
21 15.11 С 1 10 км слабый ливневой дождь 10/10 600 м
[Cb cap]
+2.4 +1.2 92 +1 +1 1020.7 1012.9
00 16.11 С 1 20 км в посл. час ливневой дождь 10/10 600 м
[Cb calv]
+2.2 +1.3 94 0 0 1021.1 1013.3
03 16.11 штиль 0 4000 м дымка 10/10 600 м
[Sc]
+2.2 +1.4 94 +1 +1 1021.6 1013.8 +2.1 0.7
06 16.11 С 1 20 км 10/10 600 м
[Sc]
+2.8 +1.5 91 +1 +1 1022.9 1015.1
09 16.11 С 1 20 км 10/10 600 м
[Sc]
+3.9 +1.8 86 +2 +2 1023.4 1015.6
12 16.11 С 1 20 км 10/10 600 м
[Sc]
+4.6 +2.0 83 +3 +3 1023.1 1015.4
15 16.11 С 1 20 км 10/10 600 м
[Sc]
+3.4 +1.4 87 +2 +2 1024.0 1016.2 +4.7
18 16.11 С 1 20 км 10/10 600 м
[Sc]
+2.7 +0.9 88 +1 +1 1024.1 1016.3
21 16.11 С 1 20 км 10/10 600 м
[Sc]
+2.4 +0.7 89 +1 +1 1024.3 1016.5
00 17.11 С 1 20 км 10/10 600 м
[Sc]
+1.9 +0.2 88 0 0 1024.6 1016.8
03 17.11 С 1 10 км слабый ливневой дождь 10/10 600 м
[Cb cap]
+1.9 +0.5 90 0 0 1025.7 1017.9 +1.8 0.0
06 17.11 штиль 0 20 км {ливн. осадки} 10/10 600 м
[Cb calv]
+2.2 +0.9 91 +1 +1 1027.1 1019.3
09 17.11 С 1 20 км 10/10 600 м
[Cb calv]
+3.1 +1.7 91 +1 +1 1027.1 1019.3
12 17.11 С 1 10 км слабый ливневой дождь 10/10 600 м
[Cb cap]
+3.5 +2.0 90 +2 +2 1027.5 1019.7
15 17.11 С 1 20 км 10/10 600 м
[Cb calv]
+2.5 +1.5 93 +1 +1 1028.6 1020.7 +3.6 0.3
18 17.11 С 1 4000 м слабый ливневой дождь 10/10 600 м
[Cb cap]
+2.0 +1.5 96 0 0 1028.6 1020.8
21 17.11 штиль 0 4000 м слабый ливневой дождь 10/10 600 м
[Cb cap]
+2.1 +1.5 96 +1 +1 1028.1 1020.2
00 18.11 С 1 4000 м дымка {ливн. осадки} 10/10 600 м
[Sc]
+1.5 +0.9 96 -1 -1 1027.9 1020.1
03 18.11 штиль 0 4000 м дымка 10/10 600 м
[Sc]
+1.2 +0.7 96 -0 -0 1027.0 1019.2 +1.2 2
06 18.11 С 1 4000 м дымка 10/10 600 м
[Sc]
+1.4 +0.9 96 -1 -1 1027.1 1019.3 +1.2
09 18.11 штиль 0 2000 м дымка 10/10 600 м
[Sc]
+1.7 +1.1 96 0 0 1026.6 1018.7
12 18.11 С 1 4000 м дымка 10/10 600 м
[Sc]
+2.5 +1.3 92 +1 +1 1025.4 1017.6
15 18.11 С 1 1000 м дымка 10/10 600 м
[Sc]
+1.9 +1.5 97 -0 -0 1026.0 1018.2 +2.7
18 18.11 штиль 0 500 м туман ?/? +2.2 +1.8 97 +1 +1 1025.6 1017.8
21 18.11 штиль 0 500 м туман ?/? +2.5 +2.1 97 +1 +1 1025.5 1017.7
00 19.11 Ю 1 1000 м дымка {туман} 10/10 600 м
[Sc]
+2.3 +2.0 98 0 0 1024.6 1016.8
03 19.11 ЮВ 1 1000 м слабая морось 10/10 300 м
[St]
+2.8 +2.4 97 +1 +1 1024.3 1016.5 +1.9 0.0
06 19.11 штиль 0 2000 м дымка {морось} 10/10 300 м
[St]
+3.0 +2.7 98 +2 +2 1024.1 1016.3
09 19.11 СЗ 1 2000 м дымка 10/10 600 м
[Sc]
+4.5 +3.3 92 +3 +3 1023.1 1015.4
12 19.11 С 1 20 км 8/3 50 м
[Sc Ac trans]
+6.8 +3.9 82 +6 +7 1021.8 1014.1
15 19.11 штиль 0 20 км 9/0 2000 м
[Ac und]
+5.6 +4.2 91 +5 +5 1021.0 1013.3 +7.1 0.0

 

Местоположение метеостанции Горячий Ключ (Краснодарский край, Россия): широта 44.63 долгота 39.10 высота над уровнем моря 62 м.

В архиве по умолчанию представлена погода в Горячем Ключе за последнюю неделю. Архивные данные за месяц целиком и за предыдущие месяцы, начиная с января 2011 года, Вы можете получить, выбрав интересующий диапазон дат из раскрывающегося списка и нажав кнопку "Ввод!".


*Определитесь, кто Вы:
робот инопланетянин человек

Внимание! Время в таблицах - всемирное. Для получения местного времени необходимо прибавить поправку, которая в Горячем Ключе равна 3 ч.

Смотрите также архив погоды в соседних городах и на ближайших метеорологических станциях:

Погода в Горном (Краснодарский край, Россия) (41 км)
Погода в Джубге (Краснодарский край, Россия) (45 км)
Погода в Краснодаре (Краснодарский край, Россия) (47 км)
Погода в Туапсе (Краснодарский край, Россия) (59 км)
Погода в Белореченске (Краснодарский край, Россия) (65 км)
Погода в Магри (Краснодарский край, Россия) (68 км)
Погода в Майкопе (Адыгея, Россия) (78 км)
Погода в Геленджике (Краснодарский край, Россия) (81 км)
Погода в Шунтуке (Адыгея, Россия) (83 км)
Погода в Усть-Лабинске (Краснодарский край, Россия) (83 км)

Пояснения к столбцам:

Ветер - указаны скорость ветра в м/с - средняя за 10 мин, порывы в срок и между сроками (в фигурных скобках) и направление, откуда дует ветер: С - северный, СВ - северо-восточный, В - восточный, ЮВ - юго-восточный, Ю - южный, ЮЗ - юго-западный, З - западный, СЗ - северо-западный.
Видимость - горизонтальная дальность видимости в метрах или километрах. При видимости от 1 до 10 км при отсутствии осадков обычно наблюдается дымка, при ухудшении видимости до 1 км и менее - туман. В сухую погоду видимость может ухудшаться дымом, пылью или мглою.
Явления - указаны атмосферные явления, наблюдавшиеся в срок или в последний час перед сроком; фигурными скобками обозначены явления, наблюдавшиеся между сроками (за 1-3 часа до срока); квадратными скобками обозначены град или гололедные отложения с указанием их диаметра в мм.
Облачность - указаны через наклонную черту общая и нижняя облачность в баллах и высота нижней границы облаков в метрах; квадратными скобками обозначены формы облаков: Ci - перистые, Cs - перисто-слоистые, Cc - перисто-кучевые, Ac - высококучевые, As - высокослоистые, Sc - слоисто-кучевые, Ns - слоисто-дождевые, Cu - кучевые, Cb - кучево-дождевые. Подробнее классификацию облаков см. в Атласе облаков (PDF).
T - Температура воздуха - температура, измеренная на высоте 2 м над землей.
Td - Температура точки росы - температура, при понижении до которой содержащийся в воздухе водяной пар достигнет насыщения.
f - Относительная влажность воздуха - влажноcть воздуха, измеренная на высоте 2 м над землей.
Te - Эффективная температура - температура, которую ощущает одетый по сезону человек в тени. Характеристика душности погоды. При расчете учитывается влияние влажности воздуха и скорости ветра на теплоощущения человека.
Tes - Эффективная температура на солнце - температура, которую ощущает человек, с поправкой на солнечный нагрев. Характеристика знойности погоды. Зависит от высоты солнца над горизонтом, облачности и скорости ветра. Ночью, в пасмурную погоду, а также при ветре 12 м/с и более поправка равна нулю.
P - Атмосферное давление - приведенное к уровню моря атмосферное давление.
Po - Атмосферное давление - измеренное на уровне метеостанции атмосферное давление.
Tmin - Минимальная температура - минимум температуры воздуха на высоте 2 м над землей.
Tmax - Максимальная температура - максимум температуры воздуха на высоте 2 м над землей.
R - Количество осадков - Количество выпавших осадков за период времени, мм. При наведении курсора мыши на число - период времени, за который выпало указанное количество осадков.
R24 - Количество осадков - Количество выпавших осадков за 24 часа, мм.
S - Снежный покров - Высота снежного покрова, см. При наведении курсора мыши на число - состояние снежного покрова и степень покрытия местности в баллах.